This is the latest recevied weather packets stored in our database for station/object EA7JCM-13. If no packets are shown the sender has not sent any weather packets the latest 10 day(s).
| Time | Temp. | Humidity | Pressure | Rain* | Wind** | Luminosity | Snow |
|---|---|---|---|---|---|---|---|
| 1777899303 | 19.44° C | 49% | 1010.6 hPa | 0 mm | - | - | - |
| 1777899003 | 18.89° C | 52% | 1010.7 hPa | 0 mm | - | - | - |
| 1777898703 | 18.33° C | 51% | 1010.6 hPa | 0 mm | - | - | - |
| 1777898403 | 18.89° C | 53% | 1010.6 hPa | 0 mm | - | - | - |
| 1777898103 | 18.89° C | 53% | 1010.8 hPa | 0 mm | - | - | - |
| 1777897803 | 18.89° C | 52% | 1010.7 hPa | 0 mm | - | - | - |
| 1777897503 | 18.33° C | 50% | 1010.8 hPa | 0 mm | - | - | - |
| 1777897203 | 18.33° C | 52% | 1010.9 hPa | 0 mm | - | - | - |
| 1777896903 | 18.33° C | 52% | 1011 hPa | 0 mm | - | - | - |
| 1777896603 | 18.33° C | 50% | 1011 hPa | 0 mm | - | - | - |
| 1777896303 | 18.33° C | 54% | 1011.1 hPa | 0 mm | - | - | - |
| 1777896003 | 17.78° C | 54% | 1011.2 hPa | 0 mm | - | - | - |
| 1777895703 | 17.78° C | 56% | 1011.1 hPa | 0 mm | - | - | - |
| 1777895403 | 17.78° C | 56% | 1011.2 hPa | 0 mm | - | - | - |
| 1777895103 | 17.78° C | 57% | 1011.3 hPa | 0 mm | - | - | - |
| 1777894803 | 17.78° C | 59% | 1011.3 hPa | 0 mm | - | - | - |
| 1777894503 | 17.78° C | 59% | 1011.2 hPa | 0 mm | - | - | - |
| 1777894203 | 17.78° C | 59% | 1011.2 hPa | 0 mm | - | - | - |
| 1777893903 | 17.22° C | 64% | 1011.2 hPa | 0 mm | - | - | - |
| 1777893603 | 17.22° C | 64% | 1011.6 hPa | 0 mm | - | - | - |
| 1777893303 | 16.67° C | 65% | 1011.6 hPa | 0 mm | - | - | - |
| 1777893003 | 16.67° C | 65% | 1011.6 hPa | 0 mm | - | - | - |
| 1777892703 | 17.22° C | 65% | 1011.6 hPa | 0 mm | - | - | - |
| 1777892403 | 16.67° C | 65% | 1011.6 hPa | 0 mm | - | - | - |
| 1777892103 | 16.67° C | 67% | 1011.8 hPa | 0 mm | - | - | - |
* Rain latest hour (hover to see other rain measurements)
** Current wind speed in m/s (hover to see current wind gust speed)